Location: Clatteringshaws Loch
(55.0508°N, 4.2860°W)
Time: 20:55:37
(UTC+01:00)

Daily predictions for brighter satellites

Satellite Brightness Start Highest point End
(mag) Time Altitude Azimuth Time Altitude Azimuth Time Altitude Azimuth
Cosmos 2278 Rocket 3.5 21:08:14 10° NNW 21:13:13 30° NE 21:18:11 10° E
Cosmos 921 Rocket 3.8 21:13:07 10° SW 21:17:14 56° WNW 21:21:25 10° NNE
Cosmos 1844 Rocket 3.1 21:12:00 10° NNW 21:17:34 52° NE 21:23:06 10° SE
Cosmos 2315 Rocket 4.1 21:14:08 10° N 21:20:22 65° ENE 21:26:36 10° SSE
Meteor 1-11 Rocket 3.8 21:14:59 10° S 21:20:45 73° E 21:26:26 10° NNE
Cosmos 2322 Rocket 2.3 21:15:27 10° S 21:21:00 55° ESE 21:26:34 10° NE
Cosmos 2266 Rocket 4.0 21:15:38 10° S 21:21:31 58° E 21:27:28 10° NNE
Cosmos 220 Rocket 4.4 21:20:11 10° NNW 21:24:28 65° WSW 21:28:45 10° SSE
USA 186 3.8 21:21:29 10° SSW 21:24:32 31° W 21:27:35 10° NNW
ATLAS 3B R/B 2.8 21:18:12 10° NW 21:25:04 75° SW 21:31:37 10° SE
Molniya-1 3.2 21:23:08 10° NW 21:25:24 88° SW 21:28:36 10° SE
Cosmos 1025 Rocket 3.0 21:22:42 10° N 21:27:00 69° ENE 21:31:15 10° SSE
Cosmos 1602 4.3 21:25:25 10° SSW 21:29:14 62° WNW 21:33:04 10° N
Okean 1 Rocket 3.3 21:25:16 10° S 21:29:29 51° E 21:33:46 10° NNE
Cosmos 1300 Rocket 3.5 21:26:30 10° S 21:30:47 72° E 21:35:07 10° NNE
Okean 2 3.4 21:27:17 10° N 21:31:23 66° ENE 21:35:27 10° SSE
BREEZE M DEB (TANK) 4.1 21:22:02 10° WSW 21:31:33 49° S 21:34:52 10° ESE
Meteor 1-23 Rocket 4.4 21:26:07 10° NNW 21:31:43 79° W 21:37:17 10° S
SL-16 R/B 2.2 21:27:23 10° SSW 21:32:59 65° ESE 21:38:39 10° NE
SPOT 1/Viking Rocket 4.3 21:28:21 10° SE 21:33:10 39° ENE 21:38:00 10° N
Okean 1-7 Rocket 3.6 21:30:23 10° N 21:34:53 77° ENE 21:39:25 10° SSE
Cosmos 2219 Rocket 4.0 21:37:49 10° ESE 21:39:49 12° E 21:41:56 10° ENE
MetOp-B 4.2 21:34:50 10° SSE 21:40:09 70° ENE 21:45:31 10° NNW
NOSS 2-3 (D) 4.3 21:38:11 10° SSW 21:42:51 47° SE 21:48:27 10° NE
Resurs 01 Rocket 3.9 21:39:35 10° SSW 21:43:17 25° W 21:46:59 10° NW
Cosmos 2322 4.4 21:39:20 10° S 21:44:19 33° ESE 21:49:20 10° NE
YAOGAN 6 3.4 21:41:01 10° S 21:44:26 49° W 21:47:53 10° NNW
Terra 3.1 21:41:22 11° ESE 21:45:07 26° ENE 21:49:04 10° N
NOSS 3-2 (C) 4.0 21:39:11 10° NW 21:46:21 77° NE 21:53:45 12° ESE
Cosmos 1515 3.6 21:44:58 10° N 21:48:50 83° E 21:52:39 10° SSE
YAOGAN 11 4.4 21:46:28 12° SE 21:50:18 50° ENE 21:54:30 10° N
ERS-1 Rocket 3.0 21:47:29 10° SSE 21:52:32 86° WSW 21:57:36 10° NNW
ERBS 2.3 21:49:47 10° WSW 21:53:16 79° SSE 21:56:46 10° ENE
Cosmos 2360 Rocket 2.5 21:48:33 10° S 21:53:50 44° ESE 21:59:09 10° NE
Cosmos 1980 Rocket 3.4 21:49:44 10° WSW 21:55:09 47° NW 22:00:34 10° NNE
COSMOS 2428 3.8 21:50:41 10° SSE 21:55:10 24° ESE 21:59:40 10° NE
Cosmos 1844 3.8 21:49:41 10° NNW 21:55:22 69° NE 22:00:13 15° SE
Cosmos 1975 3.7 21:53:20 13° SSE 21:56:15 30° E 21:59:47 10° NNE
Helios 1A 4.0 21:53:28 10° S 21:57:34 46° W 22:01:42 10° NNW
Abrixas rocket 3.7 21:55:17 10° WSW 21:57:57 23° S 21:59:32 16° SSE
H-2A R/B 3.8 21:55:20 11° E 21:58:19 20° NE 22:01:34 10° N
USA 245 3.5 21:59:05 11° SSE 22:03:38 77° ENE 22:07:29 10° NNW
Cosmos 839 Rocket 4.2 22:00:05 10° SW 22:06:14 78° NW 22:12:59 10° NE
Meteor 1-5 Rocket 4.1 22:01:08 10° SSW 22:06:27 85° WNW 22:11:48 10° NNE
Meteor 1-29 2.8 22:04:56 10° NNE 22:08:23 75° ESE 22:11:47 10° S
Cosmos 2333 Rocket 3.7 22:07:14 15° ESE 22:08:41 16° E 22:12:04 10° ENE
ATLAS 2AS CENTAUR R/B 3.1 22:02:02 10° SSW 22:09:44 61° SE 22:17:44 10° NE
H-2A R/B 2.0 22:06:28 14° SSE 22:10:46 72° ENE 22:15:44 10° NNW
Cosmos 1500 3.4 22:07:20 11° S 22:11:00 54° E 22:14:48 10° NNE
Cosmos 1238 Rocket 4.1 22:05:10 10° N 22:11:59 87° ENE 22:18:21 10° S
COSMOS 2455 3.9 22:06:25 10° NW 22:12:04 39° NNE 22:17:36 10° E
Cosmos 1626 Rocket 4.2 22:08:21 10° N 22:12:26 38° ENE 22:15:00 19° SE
CENTAUR R/B 3.3 22:07:05 10° NW 22:14:25 63° NNE 22:21:54 13° ESE
Cosmos 1892 Rocket 3.6 22:10:37 10° NNW 22:15:06 88° W 22:18:53 14° S
Cosmos 1536 4.1 22:11:33 10° SW 22:15:28 45° WNW 22:19:24 10° N
NOSS 3-1 (A) 4.2 22:10:41 10° WSW 22:16:48 61° NNW 22:23:53 10° NE
Cosmos 2369 Rocket 4.4 22:15:11 10° NNW 22:19:11 19° NNE 22:23:12 10° ENE
NOSS 2-3 (E) 4.0 22:14:44 10° SW 22:19:42 76° SE 22:25:47 10° NE
EXPRESS MD2 4.1 22:16:43 10° SW 22:19:56 40° SSE 22:25:59 10° E
Cosmos 1486 Rocket 4.3 22:15:36 10° NNW 22:20:49 65° WSW 22:25:10 15° S
Cosmos 1302 Rocket 4.3 22:19:46 10° S 22:24:47 46° ESE 22:29:49 10° NE
ATLAS CENTAUR R/B 2.6 22:22:10 10° NW 22:25:29 30° NNE 22:28:18 13° E
Cosmos 2237 Rocket 3.8 22:25:16 15° ESE 22:25:55 15° E 22:29:05 10° ENE
Cosmos 968 Rocket 4.1 22:24:26 10° NNW 22:29:21 43° NE 22:32:33 20° ESE
Cosmos 1066 Rocket 4.3 22:25:18 10° NNW 22:30:42 74° W 22:35:26 14° S
Cosmos 1110 Rocket 3.9 22:28:16 10° SSW 22:33:27 88° ESE 22:38:41 10° NNE
Nadezhda 1 Rocket 4.0 22:28:10 10° N 22:34:29 77° ENE 22:39:16 19° SSE
Cosmos 1437 Rocket 3.4 22:32:58 26° SE 22:34:31 37° E 22:38:11 10° NNE
Cosmos 1544 Rocket 3.6 22:33:03 17° S 22:36:24 64° E 22:40:50 10° NNE
Helios 1B rocket 3.3 22:33:15 10° N 22:37:16 52° WNW 22:41:15 10° SW
GP-B 3.7 22:33:57 10° NNE 22:38:12 41° E 22:40:10 26° SE
SPOT 5 3.2 22:35:51 14° S 22:39:51 59° WSW 22:44:23 10° NNW
Timation 1 Rocket 4.3 22:34:02 10° NW 22:40:04 84° NE 22:43:56 23° SE
SeaSat 1 3.1 22:38:24 10° NNE 22:43:16 59° NW 22:48:07 10° SW
Meteor 1-4 Rocket 4.4 22:43:48 18° E 22:43:51 18° E 22:46:29 10° NE
Cosmos 2297 4.3 22:39:11 10° NNW 22:44:40 47° NE 22:48:19 20° ESE
Lacrosse 5 1.9 22:40:15 10° SW 22:45:12 55° SSE 22:50:11 10° ENE
USA 215 3.4 22:38:52 10° E 22:45:24 76° N 22:51:58 10° W
IGS 5A 3.5 22:43:46 28° SE 22:45:49 66° ENE 22:49:59 10° N
Cosmos 1331 Rocket 4.0 22:41:30 10° SSW 22:46:43 84° WNW 22:52:01 10° NNE
Cosmos 1455 Rocket 3.0 22:45:47 20° S 22:48:50 74° E 22:53:19 10° NNE
Cosmos 405 3.1 22:46:38 16° SSW 22:49:24 78° WNW 22:53:02 10° NNE
ARGOS 4.1 22:45:20 10° S 22:50:22 45° W 22:55:33 10° NNW
Meteor 1-21 4.2 22:44:57 10° NNW 22:50:37 84° ENE 22:54:10 24° SSE
Cosmos 2181 Rocket 4.4 22:46:11 10° N 22:52:30 52° ENE 22:56:08 25° SE
NOSS 2-3 (C) 4.3 22:48:23 10° WSW 22:53:28 78° NW 22:59:46 10° NE
Cosmos 1666 2.9 22:55:07 36° SSE 22:56:21 52° E 23:00:08 10° NNE
DMSP B5D2-2 4.2 22:51:51 10° NNE 22:57:04 58° ESE 23:00:08 24° S
Cosmos 2278 Rocket 2.2 22:52:16 10° NW 22:57:59 87° WSW 23:01:08 28° SSE
NOSS 3-2 (A) 4.4 22:51:16 10° NW 22:58:18 52° SW 23:03:29 22° SSE
Cosmos 1354 Rocket 4.4 22:53:05 10° NNW 22:58:21 60° WSW 23:01:34 24° S
Cosmos 1842 3.2 22:55:34 10° N 22:59:31 72° ENE 23:00:56 38° SSE
Cosmos 1709 Rocket 4.5 22:56:46 26° SE 22:59:48 43° E 23:05:40 10° NNE
Cosmos 1844 Rocket 3.6 22:56:07 10° NW 23:01:25 41° WSW 23:05:10 18° S
Nimbus 7 Rocket 4.3 22:57:30 10° NNE 23:03:23 71° ESE 23:07:50 18° S
Cosmos 2322 Rocket 3.6 22:59:55 10° WSW 23:05:18 41° NW 23:10:42 10° NNE
Aureole 2 Rocket 2.6 23:06:24 44° E 23:06:24 44° E 23:09:12 10° NE
Cosmos 1340 Rocket 4.3 23:03:21 10° N 23:06:32 23° ENE 23:07:36 20° E
Landsat 7 4.2 23:04:25 24° S 23:07:14 61° WSW 23:11:59 10° NNW
Cosmos 2237 4.2 23:05:04 10° SSW 23:10:47 89° ESE 23:16:33 10° NE
ARGOS Delta rocket 4.1 23:07:09 10° NNE 23:11:32 46° E 23:12:56 35° SE
SPOT 1/Viking Rocket 4.4 23:08:44 17° SSW 23:12:32 44° W 23:17:34 10° NNW
Cosmos 1743 2.7 23:10:57 31° SSW 23:12:42 82° WNW 23:16:33 10° N
Cosmos 1818 3.7 23:08:50 13° SSW 23:13:30 53° SE 23:18:48 10° NE
ATLAS 3B R/B 4.3 23:09:50 10° WNW 23:14:43 22° WSW 23:19:25 10° SSW
CZ-2C R/B 4.2 23:13:34 10° NE 23:17:28 20° E 23:18:23 19° E
SL-16 R/B 3.8 23:12:16 10° WSW 23:17:30 36° NW 23:22:46 10° NNE
DELTA 2 DEB (DPAF) 4.4 23:17:57 36° SE 23:19:29 55° ENE 23:23:54 10° N
USA 81 4.0 23:14:48 10° N 23:20:07 78° E 23:22:28 34° SSE
CARTOSAT-1 3.9 23:19:08 31° SSW 23:21:02 59° WSW 23:25:20 10° NNW
Terra 2.1 23:20:15 29° S 23:22:34 61° WSW 23:27:20 10° NNW
Cosmos 2219 Rocket 2.2 23:19:28 26° S 23:22:36 58° ESE 23:28:09 10° NE
ALOS 2 4.1 23:21:49 22° E 23:23:21 27° ENE 23:27:02 10° N
Meteor 2-9 Rocket 4.3 23:22:05 32° SSE 23:24:45 63° E 23:30:18 10° NNE
CZ-2C R/B 3.6 23:23:13 29° ESE 23:25:00 41° ENE 23:29:35 10° N
Cosmos 1602 Rocket 4.1 23:22:16 10° NNW 23:26:30 52° W 23:28:24 29° SSW
DNEPR-1 R/B 3.5 23:22:11 10° NW 23:26:30 83° SW 23:28:01 42° SE
Cosmos 2322 4.2 23:22:37 10° SW 23:28:14 62° NW 23:33:54 10° NNE
ERBS 2.8 23:26:37 10° W 23:30:04 60° N 23:31:47 26° ENE
Cosmos 1975 4.4 23:29:06 10° SW 23:32:43 33° WNW 23:36:24 10° N
Cosmos 1953 Rocket 3.8 23:28:25 10° N 23:32:53 58° ENE 23:34:01 43° SE
Cosmos 1777 Rocket 4.2 23:28:20 10° NNW 23:33:35 63° ENE 23:35:40 36° SE
Cosmos 1184 Rocket 3.1 23:30:21 10° N 23:33:37 53° ENE 23:33:38 53° ENE
H-2A R/B 2.1 23:32:27 43° S 23:33:51 77° WSW 23:38:19 10° NNW
Cosmos 1271 Rocket 4.4 23:34:34 20° ENE 23:34:34 20° ENE 23:36:53 10° NE
SL-16 R/B 3.5 23:34:11 22° ESE 23:34:16 22° ESE 23:38:30 10° NE
Meteor 2-5 Rocket 4.2 23:30:02 10° N 23:35:49 54° ENE 23:38:17 33° SE
Cosmos 1745 Rocket 4.3 23:31:54 15° SSW 23:37:07 64° WNW 23:43:17 10° N
Cosmos 2360 Rocket 3.1 23:32:25 10° WSW 23:37:52 48° NW 23:43:20 10° NNE
COSMOS 2428 2.8 23:33:07 10° SW 23:38:53 81° NW 23:44:40 10° NNE
PSLV R/B 3.5 23:39:47 56° NNW 23:39:47 56° NNW 23:42:03 10° NNW
Cosmos 1943 Rocket 4.0 23:37:26 10° NNW 23:41:59 25° NNE 23:46:31 10° E
NOSS 0 Rocket 4.0 23:40:05 32° S 23:42:49 56° ESE 23:48:54 10° NE
ATLAS CENTAUR R/B 3.6 23:33:22 10° WNW 23:49:29 83° SSW 23:52:38 31° ESE
H-2A R/B 3.9 23:47:06 11° SW 23:50:43 22° W 23:54:32 10° NW
deb Chang Zheng 4 3.6 23:47:34 10° NNE 23:51:56 60° ESE 23:52:31 54° SE
Cosmos 2333 Rocket 2.1 23:49:11 30° SSW 23:52:01 74° ESE 23:57:42 10° NE
Spot 4 4.1 23:53:06 40° SSW 23:54:37 60° WSW 23:59:22 10° NNW
Mayak 0.9 23:53:03 10° NE 23:55:03 14° E 23:55:03 14° E
